Location: Plainartige
(45.6866°N, 1.7993°E)
Time: 08:39:45
(UTC+00:00)

Tiros 1 - Pass Details

Date: 05 June 2022
Orbit: 629 x 663 km, 48.4° (Epoch: 04 July)

Event Time Altitude Azimuth Distance (km) Brightness Sun altitude
Rises 03:25:05 0° 286° (WNW) 2,925 10.2 -6.3°
Reaches altitude 10° 03:27:50 10° 270° (W) 2,018 9.3 -6.0°
Maximum altitude 03:31:20 21° 221° (SW) 1,421 8.3 -5.5°
Drops below altitude 10° 03:34:50 10° 172° (S) 2,024 9.4 -5.0°
Sets 03:37:36 0° 157° (SSE) 2,937 10.4 -4.7°
